Location: �bnet
(46.9957°N, 8.4908°E)
Time: 16:05:47
(UTC+00:00)

Nimbus 7 Rocket - Pass Details

Date: 11 May 2021
Orbit: 922 x 965 km, 99.4° (Epoch: 17 June)

Event Time Altitude Azimuth Distance (km) Brightness Sun altitude
Rises 23:17:00 0° 14° (NNE) 3,581 8.7 -24.9°
Reaches altitude 10° 23:19:26 10° 14° (NNE) 2,637 7.7 -24.9°
Maximum altitude 23:25:19 84° 288° (WNW) 941 4.3 -24.9°
Enters shadow 23:26:37 57° 206° (SSW) 1,086 4.4 -24.9°
